Location: Tarleton Observatory
(32.2162°N, 98.0976°W)
Time: 21:02:12
(UTC-05:00)

Daily predictions for brighter satellites

Satellite Brightness Start Highest point End
(mag) Time Altitude Azimuth Time Altitude Azimuth Time Altitude Azimuth
Meteor 2-14 Rocket 4.4 19:12:16 10° S 19:18:20 72° E 19:24:23 10° N
Meteor 2-16 Rocket 4.5 19:14:51 10° S 19:20:49 63° E 19:26:51 10° NNE
CZ-2C R/B 4.4 19:17:56 10° N 19:22:22 58° WNW 19:26:44 10° SSW
Cosmos-2242 3.3 19:19:00 10° S 19:23:15 73° W 19:27:31 10° N
ASTRO E2 3.0 19:22:33 10° WSW 19:26:30 59° SSE 19:30:26 10° E
Cosmos 1400 Rocket 3.8 19:23:50 10° NNE 19:27:16 26° ENE 19:30:39 10° SE
Tiangong 1 1.9 19:25:03 10° NW 19:27:27 27° NNE 19:29:46 10° E
IRS-1A Rocket 4.5 19:23:30 10° SSE 19:29:18 89° WSW 19:35:14 10° NNW
ERS-2 2.5 19:26:15 10° S 19:29:55 71° WSW 19:33:37 10° NNW
Cosmos 1624 Rocket 4.1 19:26:46 10° N 19:31:52 53° ENE 19:36:58 10° SSE
Cosmos 1371 Rocket 4.0 19:28:52 10° NNW 19:34:14 70° ENE 19:39:32 10° SSE
SKYMED 2 3.5 19:30:06 10° NNE 19:34:28 83° ESE 19:38:48 10° S
Thor Agena Rocket 4.2 19:30:37 10° NE 19:35:04 30° E 19:39:28 10° SSE
Cosmos 1908 4.3 19:32:47 10° SE 19:35:59 24° E 19:39:11 10° NE
SL-16 R/B 2.2 19:33:43 10° NNW 19:39:23 69° ENE 19:45:01 10° SSE
Cosmos 1743 Rocket 3.7 19:36:54 10° N 19:41:09 48° E 19:45:24 10° SSE
Cosmos 1842 Rocket 3.5 19:39:00 10° S 19:43:26 70° E 19:47:53 10° NNE
Cosmos 1766 Rocket 4.3 19:39:37 10° NNW 19:44:00 58° W 19:48:22 10° S
Cosmos 2151 3.4 19:40:07 10° NNE 19:44:07 38° E 19:48:04 10° SSE
H-2A R/B 4.3 19:43:01 14° E 19:44:19 16° ENE 19:46:45 10° NNE
Delta 2 Rocket 2.9 19:41:28 10° WSW 19:45:11 78° NNW 19:47:45 17° ENE
Cosmos 44 4.3 19:42:27 10° SSE 19:45:47 21° ESE 19:47:52 15° ENE
GENESIS II 4.3 19:43:18 10° SSW 19:47:11 57° ESE 19:51:06 10° NE
SL-14 R/B 4.5 19:43:48 10° NNW 19:47:30 45° W 19:51:11 10° SSW
APEX 4.1 19:47:24 10° SSE 19:50:22 22° ESE 19:51:17 20° E
Cosmos 2221 3.0 19:51:05 10° SSE 19:55:01 36° E 19:58:59 10° NNE
Cosmos 2366 rocket 4.4 19:49:36 10° SSW 19:55:50 70° W 20:02:01 10° N
Cosmos 44 Rocket 4.1 19:52:14 10° S 19:56:17 29° ESE 19:58:42 18° ENE
ISS -3.8 19:54:22 10° NW 19:57:39 81° SW 20:00:17 15° SE
BREEZE-M R/B 4.2 19:57:13 10° SSE 19:57:37 12° SSE 19:57:37 12° SSE
Milstar 3 Cent rocket 4.1 19:51:43 10° W 20:01:30 39° SSW 20:06:59 10° SE
METEOR-M 4.4 19:57:45 10° S 20:03:04 72° WSW 20:08:25 10° NNW
ATLAS 3B CENTAUR R/B 4.0 19:58:48 10° WSW 20:03:05 30° S 20:12:17 10° SE
Cosmos 1500 Rocket 3.4 19:59:13 10° N 20:03:33 68° E 20:07:50 10° SSE
SPOT 3 Rocket 3.6 19:58:52 10° S 20:04:02 82° WSW 20:09:16 10° NNW
Cosmos 158 Rocket 4.0 20:00:51 10° S 20:05:37 49° ESE 20:10:31 10° NNE
Cosmos 1315 Rocket 3.2 20:04:25 10° N 20:08:17 41° E 20:12:10 10° SSE
BREEZE-M DEB (TANK) 2.3 20:08:10 10° NNW 20:09:32 28° N 20:09:32 28° N
Cosmos 921 Rocket 3.7 20:06:43 10° N 20:10:46 34° ENE 20:11:50 30° E
Cosmos 1269 Rocket 4.4 20:07:15 10° S 20:12:07 40° E 20:16:59 10° NNE
COSMOS 2428 3.8 20:12:04 10° N 20:16:20 23° ENE 20:16:20 23° ENE
Cosmos 2058 3.0 20:14:18 10° N 20:18:28 77° W 20:22:36 10° S
Cosmos 2098 Rocket 3.1 20:15:15 10° SSE 20:18:52 46° E 20:23:27 10° NNE
Cosmos 2056 Rocket 4.3 20:14:08 10° NNW 20:19:17 54° WSW 20:24:20 10° S
NOAA 12 4.2 20:14:10 10° S 20:19:26 78° WSW 20:24:46 10° NNW
Cosmos 2333 Rocket 4.3 20:17:32 10° NNE 20:18:02 11° NE 20:18:02 11° NE
FengYun 1-2 T 4.3 20:15:48 10° SSE 20:21:09 53° ENE 20:26:28 10° N
RESURS DK-1 2.7 20:19:07 10° N 20:23:04 42° ENE 20:23:04 42° ENE
Cosmos 2219 3.4 20:17:52 10° S 20:23:23 49° ESE 20:27:40 17° NE
Cosmos 468 4.4 20:18:20 10° SSW 20:23:33 89° WNW 20:28:47 10° NNE
Cosmos 1626 3.5 20:20:02 10° NNW 20:23:33 41° W 20:27:04 10° SSW
Cosmos 2360 Rocket 2.1 20:18:01 10° NNW 20:23:39 63° ENE 20:28:04 17° SSE
SJ-6B 4.1 20:30:52 26° NNE 20:30:52 26° NNE 20:32:42 10° N
Cosmos 2322 Rocket 3.5 20:24:24 10° NW 20:29:37 40° WSW 20:34:49 10° S
SL-24 R/B - RUBIN 2 4.0 20:26:33 10° NNW 20:30:52 42° NE 20:30:52 42° NE
Cosmos 1821 Rocket 3.8 20:27:22 10° S 20:33:26 74° E 20:39:37 10° N
Cosmos 1452 Rocket 3.4 20:32:01 10° NNW 20:37:18 80° ENE 20:40:43 22° SSE
OAO 1 Rocket 4.3 20:34:34 10° WSW 20:39:53 84° NNW 20:41:07 54° ENE
Cosmos 1000 Rocket 4.3 20:34:17 10° N 20:40:31 73° E 20:46:40 10° SSE
Cosmos 2239 Rocket 4.3 20:36:18 10° S 20:42:26 88° E 20:48:36 10° N
Cosmos 1934 Rocket 3.9 20:36:28 10° S 20:42:41 65° E 20:48:59 10° NNE
USA 267 3.5 20:37:01 13° NE 20:42:48 67° NW 20:49:16 10° SW
ALOS 3.6 20:41:15 10° SSW 20:45:35 39° W 20:49:58 10° NNW
Atlas Centaur 2 2.2 20:40:30 10° W 20:45:44 73° S 20:47:12 52° ESE
DELTA 2 R/B (1) 4.1 20:40:29 10° WNW 20:45:48 43° N 20:46:42 40° NE
Cosmos 2322 3.6 20:43:30 10° NNW 20:49:15 84° ENE 20:51:21 41° SSE
ATLAS 2A CENTAUR R/B 3.5 20:53:31 10° SW 20:53:51 13° SW 20:53:51 13° SW
CZ-4C R/B 2.0 20:51:11 10° SSW 20:56:12 82° WNW 20:57:35 51° NNE
Tiangong 1 4.3 21:00:08 10° W 21:00:26 12° W 21:00:26 12° W
Cosmos 2123 Rocket 4.2 21:00:33 10° N 21:05:32 54° NNE 21:05:32 54° NNE
ASTRO E2 4.2 21:02:59 10° W 21:05:26 36° W 21:05:26 36° W
Cosmos 2219 Rocket 3.8 21:08:58 10° N 21:11:01 22° N 21:11:01 22° N
FALCON 9 R/B 4.0 21:24:04 10° WSW 21:25:33 16° SW 21:25:33 16° SW
Centaur D AC-28 3.4 21:27:24 10° SW 22:06:22 - E 21:30:48 46° S
COSMOS 2428 4.5 21:55:34 10° NW 21:58:24 27° NW 21:58:24 27° NW
